Riverside, CA

11:53 AM PDT on July 20, 2017 (GMT -0700)
Riverside Municipal

Weather History for KRAL - December, 2013

Change the Weather History Date:

Friday, December 27, 2013

  Actual Average Record
Temperature  
Mean Temperature 63 °F 54 °F  
Max Temperature 82 °F 66 °F 86 °F (1947)
Min Temperature 43 °F 42 °F 24 °F (1911)
Degree Days  
Heating Degree Days 2 11  
Month to date heating degree days 216 283  
Since 1 July heating degree days 359 483  
Cooling Degree Days 0 0  
Month to date cooling degree days 10 0  
Year to date cooling degree days 1996 1754  
Growing Degree Days 14 (Base 50)    
Moisture  
Dew Point 18 °F    
Average Humidity 20    
Maximum Humidity 34    
Minimum Humidity 6    
Precipitation  
Precipitation 0.00 in 0.08 in 1.31 in (1948)
Month to date precipitation 0.16 1.17  
Year to date precipitation 3.36 12.04  
Since 1 July precipitation 1.15  
Snow  
Snow 0.00 in - - ()
Month to date snowfall 0.0  
Year to date snowfall 0.0  
Snow Depth 0.00 in    
Sea Level Pressure  
Sea Level Pressure 30.08 in    
Wind  
Wind Speed 5 mph (ENE)    
Max Wind Speed 9 mph    
Max Gust Speed 12 mph    
Visibility 10 miles    
Events      
T = Trace of Precipitation, MM = Missing Value Source: NWS Daily Summary

Daily Weather History Graph

Daily Weather History Graph

Search for Another Location

Airport or City:

Trip Planner

Search our weather history database for the weather conditions in past years. The results will help you decide how hot, cold, wet, or windy it might be!

Date:

Astronomy

Dec. 27, 2013 Rise Set
Actual Time 6:53 AM PST 4:48 PM PST
Civil Twilight 6:26 AM PST 5:16 PM PST
Nautical Twilight 5:54 AM PST 5:47 PM PST
Astronomical Twilight 5:24 AM PST 6:17 PM PST
Moon 1:39 AM PST (12/27) 12:54 PM PST (12/27)
Length of Visible Light 10h 50m
Length of Day
9h 54m
Waning Crescent, 27% of the Moon is Illuminated
Dec 27
Waning Crescent
Jan 1
New
Jan 7
First Quarter
Jan 15
Full
Jan 23
Last Quarter

Hourly Weather History & Observations

Time (PST) Temp. Windchill Dew Point Humidity Pressure Visibility Wind Dir Wind Speed Gust Speed Precip Events Conditions
12:53 AM 51.1 °F - 18.0 °F 27% 30.13 in 10.0 mi ENE 6.9 mph - N/A   Clear
1:53 AM 50.0 °F - 18.0 °F 28% 30.12 in 10.0 mi NE 4.6 mph - N/A   Clear
2:53 AM 46.9 °F - 19.0 °F 33% 30.13 in 10.0 mi East 4.6 mph - N/A   Clear
3:53 AM 48.0 °F - 18.0 °F 30% 30.12 in 10.0 mi NE 6.9 mph - N/A   Clear
4:53 AM 46.9 °F - 18.0 °F 32% 30.12 in 10.0 mi ENE 6.9 mph - N/A   Clear
5:53 AM 46.0 °F 41.9 °F 19.0 °F 34% 30.13 in 10.0 mi ENE 8.1 mph - N/A   Clear
6:53 AM 46.9 °F - 17.1 °F 30% 30.14 in 10.0 mi ENE 6.9 mph - N/A   Clear
7:53 AM 50.0 °F - 18.0 °F 28% 30.14 in 10.0 mi ENE 3.5 mph - N/A   Clear
8:53 AM 57.0 °F - 21.0 °F 25% 30.14 in 10.0 mi ENE 4.6 mph - N/A   Clear
9:53 AM 64.9 °F - 24.1 °F 21% 30.14 in 10.0 mi ENE 3.5 mph - N/A   Clear
10:53 AM 73.0 °F - 24.1 °F 16% 30.12 in 10.0 mi NNE 3.5 mph - N/A   Clear
11:53 AM 79.0 °F - 10.9 °F 8% 30.08 in 10.0 mi East 3.5 mph - N/A   Clear
12:53 PM 81.0 °F - 8.1 °F 6% 30.05 in 10.0 mi NE 3.5 mph - N/A   Clear
1:53 PM 82.0 °F - 10.0 °F 7% 30.03 in 10.0 mi Calm Calm - N/A   Clear
2:53 PM 80.1 °F - 6.1 °F 6% 30.03 in 10.0 mi WNW 3.5 mph - N/A   Clear
3:53 PM 80.1 °F - 5.0 °F 6% 30.02 in 10.0 mi Calm Calm - N/A   Clear
4:53 PM 73.9 °F - 10.9 °F 9% 30.02 in 10.0 mi Calm Calm - N/A   Clear
5:53 PM 69.1 °F - 14.0 °F 12% 30.04 in 10.0 mi Calm Calm - N/A   Clear
6:53 PM 63.0 °F - 23.0 °F 22% 30.06 in 10.0 mi Calm Calm - N/A   Clear
7:53 PM 62.1 °F - 23.0 °F 22% 30.06 in 10.0 mi ESE 3.5 mph - N/A   Clear
8:53 PM 57.9 °F - 23.0 °F 26% 30.06 in 10.0 mi Calm Calm - N/A   Clear
9:53 PM 57.0 °F - 24.1 °F 28% 30.06 in 10.0 mi ENE 4.6 mph - N/A   Clear
10:53 PM 55.9 °F - 24.1 °F 29% 30.05 in 10.0 mi ENE 4.6 mph - N/A   Clear
11:53 PM 53.1 °F - 25.0 °F 34% 30.04 in 10.0 mi East 4.6 mph - N/A   Clear